Time,TemperatureF,DewpointF,PressureIn,WindDirection,WindDirectionDegrees,WindSpeedMPH,WindSpeedGustMPH,Humidity,HourlyPrecipIn,Conditions,Clouds,dailyrainin,SoftwareType,DateUTC
2013-01-11 00:03:00,35.0,26.0,30.50,WNW,289,0.0,3.0,68,0.00,,,0.00,,2013-01-11 05:03:00,
2013-01-11 00:13:00,35.0,26.0,30.50,WNW,289,0.0,3.0,68,0.00,,,0.00,,2013-01-11 05:13:00,
2013-01-11 00:23:00,34.0,25.0,30.50,North,351,0.0,3.0,69,0.00,,,0.00,,2013-01-11 05:23:00,
2013-01-11 00:33:00,34.0,25.0,30.50,WNW,295,0.0,5.0,69,0.00,,,0.00,,2013-01-11 05:33:00,
2013-01-11 00:43:00,34.0,25.0,30.50,WNW,295,0.0,5.0,69,0.00,,,0.00,,2013-01-11 05:43:00,
2013-01-11 00:53:00,34.0,25.0,30.50,West,275,1.0,4.0,70,0.00,,,0.00,,2013-01-11 05:53:00,
2013-01-11 01:03:00,33.0,24.0,30.50,West,275,0.0,3.0,70,0.00,,,0.00,,2013-01-11 06:03:00,
2013-01-11 01:12:00,33.0,24.0,30.50,West,275,0.0,3.0,70,0.00,,,0.00,,2013-01-11 06:12:00,
2013-01-11 01:22:00,33.0,24.0,30.50,West,275,0.0,3.0,70,0.00,,,0.00,,2013-01-11 06:22:00,
2013-01-11 01:32:00,32.0,24.0,30.50,West,275,0.0,1.0,71,0.00,,,0.00,,2013-01-11 06:32:00,
2013-01-11 01:42:00,32.0,24.0,30.50,West,275,0.0,1.0,71,0.00,,,0.00,,2013-01-11 06:42:00,
2013-01-11 01:52:00,32.0,24.0,30.49,West,275,0.0,0.0,71,0.00,,,0.00,,2013-01-11 06:52:00,
2013-01-11 02:02:00,31.0,23.0,30.50,West,275,0.0,0.0,73,0.00,,,0.00,,2013-01-11 07:02:00,
2013-01-11 02:12:00,31.0,23.0,30.50,West,275,0.0,0.0,73,0.00,,,0.00,,2013-01-11 07:12:00,
2013-01-11 02:22:00,30.0,23.0,30.49,West,275,0.0,0.0,74,0.00,,,0.00,,2013-01-11 07:22:00,
2013-01-11 02:32:00,30.0,23.0,30.50,West,275,0.0,0.0,76,0.00,,,0.00,,2013-01-11 07:32:00,
2013-01-11 02:42:00,29.0,23.0,30.49,West,275,0.0,0.0,77,0.00,,,0.00,,2013-01-11 07:42:00,
2013-01-11 02:52:00,29.0,23.0,30.49,West,275,0.0,0.0,77,0.00,,,0.00,,2013-01-11 07:52:00,
2013-01-11 03:02:00,29.0,23.0,30.49,West,275,0.0,0.0,78,0.00,,,0.00,,2013-01-11 08:02:00,
2013-01-11 03:12:00,28.0,22.0,30.49,West,275,0.0,0.0,79,0.00,,,0.00,,2013-01-11 08:12:00,
2013-01-11 03:22:00,28.0,22.0,30.49,West,275,0.0,0.0,79,0.00,,,0.00,,2013-01-11 08:22:00,
2013-01-11 03:32:00,28.0,22.0,30.49,West,275,0.0,0.0,79,0.00,,,0.00,,2013-01-11 08:32:00,
2013-01-11 03:42:00,28.0,22.0,30.49,West,275,0.0,0.0,79,0.00,,,0.00,,2013-01-11 08:42:00,
2013-01-11 03:53:00,28.0,23.0,30.47,West,275,0.0,0.0,80,0.00,,,0.00,,2013-01-11 08:53:00,
2013-01-11 04:02:00,27.0,22.0,30.47,West,275,0.0,1.0,80,0.00,,,0.00,,2013-01-11 09:02:00,
2013-01-11 04:12:00,27.0,22.0,30.47,West,275,0.0,1.0,80,0.00,,,0.00,,2013-01-11 09:12:00,
2013-01-11 04:23:00,27.0,22.0,30.46,West,275,0.0,0.0,81,0.00,,,0.00,,2013-01-11 09:23:00,
2013-01-11 04:32:00,27.0,23.0,30.46,West,275,0.0,0.0,83,0.00,,,0.00,,2013-01-11 09:32:00,
2013-01-11 04:42:00,27.0,23.0,30.46,West,275,0.0,0.0,83,0.00,,,0.00,,2013-01-11 09:42:00,
2013-01-11 04:52:00,27.0,23.0,30.46,West,275,0.0,0.0,84,0.00,,,0.00,,2013-01-11 09:52:00,
2013-01-11 05:02:00,27.0,23.0,30.46,West,275,0.0,0.0,84,0.00,,,0.00,,2013-01-11 10:02:00,
2013-01-11 05:12:00,27.0,23.0,30.46,West,275,0.0,0.0,84,0.00,,,0.00,,2013-01-11 10:12:00,
2013-01-11 05:22:00,27.0,23.0,30.46,West,275,0.0,1.0,84,0.00,,,0.00,,2013-01-11 10:22:00,
2013-01-11 05:32:00,27.0,23.0,30.47,West,275,0.0,0.0,85,0.00,,,0.00,,2013-01-11 10:32:00,
2013-01-11 05:42:00,27.0,23.0,30.47,West,275,0.0,0.0,85,0.00,,,0.00,,2013-01-11 10:42:00,
2013-01-11 05:53:00,27.0,23.0,30.47,West,275,0.0,0.0,85,0.00,,,0.00,,2013-01-11 10:53:00,
2013-01-11 06:03:00,26.0,22.0,30.47,West,275,0.0,0.0,85,0.00,,,0.00,,2013-01-11 11:03:00,
2013-01-11 06:12:00,26.0,22.0,30.47,West,275,0.0,0.0,85,0.00,,,0.00,,2013-01-11 11:12:00,
2013-01-11 06:22:00,26.0,22.0,30.47,West,275,0.0,0.0,85,0.00,,,0.00,,2013-01-11 11:22:00,
2013-01-11 06:33:00,26.0,22.0,30.47,West,275,0.0,0.0,85,0.00,,,0.00,,2013-01-11 11:33:00,
2013-01-11 06:42:00,26.0,22.0,30.47,West,275,0.0,0.0,85,0.00,,,0.00,,2013-01-11 11:42:00,
2013-01-11 06:53:00,26.0,22.0,30.48,West,276,0.0,0.0,85,0.00,,,0.00,,2013-01-11 11:53:00,
2013-01-11 07:03:00,26.0,22.0,30.48,West,275,0.0,0.0,86,0.00,,,0.00,,2013-01-11 12:03:00,
2013-01-11 07:12:00,26.0,22.0,30.48,West,275,0.0,0.0,86,0.00,,,0.00,,2013-01-11 12:12:00,
2013-01-11 07:22:00,26.0,22.0,30.48,West,275,0.0,0.0,86,0.00,,,0.00,,2013-01-11 12:22:00,
2013-01-11 07:33:00,26.0,22.0,30.49,West,275,0.0,0.0,86,0.00,,,0.00,,2013-01-11 12:33:00,
2013-01-11 07:43:00,26.0,22.0,30.49,West,275,0.0,0.0,86,0.00,,,0.00,,2013-01-11 12:43:00,
2013-01-11 07:53:00,26.0,22.0,30.49,West,274,0.0,2.0,86,0.00,,,0.00,,2013-01-11 12:53:00,
2013-01-11 08:03:00,26.0,23.0,30.49,West,274,0.0,1.0,87,0.00,,,0.00,,2013-01-11 13:03:00,
2013-01-11 08:13:00,26.0,23.0,30.49,West,274,0.0,1.0,87,0.00,,,0.00,,2013-01-11 13:13:00,
2013-01-11 08:22:00,27.0,24.0,30.49,West,274,0.0,0.0,87,0.00,,,0.00,,2013-01-11 13:22:00,
2013-01-11 08:33:00,27.0,24.0,30.50,West,274,0.0,1.0,88,0.00,,,0.00,,2013-01-11 13:33:00,
2013-01-11 08:43:00,27.0,24.0,30.50,West,274,0.0,1.0,88,0.00,,,0.00,,2013-01-11 13:43:00,
2013-01-11 08:53:00,28.0,25.0,30.50,West,274,0.0,0.0,88,0.00,,,0.00,,2013-01-11 13:53:00,
2013-01-11 09:03:00,29.0,26.0,30.49,West,274,0.0,1.0,89,0.00,,,0.00,,2013-01-11 14:03:00,
2013-01-11 09:12:00,29.0,26.0,30.49,West,274,0.0,1.0,89,0.00,,,0.00,,2013-01-11 14:12:00,
2013-01-11 09:23:00,30.0,27.0,30.48,West,274,0.0,0.0,88,0.00,,,0.00,,2013-01-11 14:23:00,
2013-01-11 09:33:00,31.0,28.0,30.47,West,274,0.0,2.0,87,0.00,,,0.00,,2013-01-11 14:33:00,
2013-01-11 09:43:00,34.0,29.0,30.48,West,274,0.0,1.0,82,0.00,,,0.00,,2013-01-11 14:43:00,
2013-01-11 09:53:00,34.0,29.0,30.48,West,274,0.0,1.0,82,0.00,,,0.00,,2013-01-11 14:53:00,
2013-01-11 10:03:00,35.0,29.0,30.47,West,274,0.0,2.0,78,0.00,,,0.00,,2013-01-11 15:03:00,
2013-01-11 10:13:00,36.0,29.0,30.47,WNW,282,0.0,3.0,77,0.00,,,0.00,,2013-01-11 15:13:00,
2013-01-11 10:23:00,36.0,29.0,30.47,WNW,282,0.0,3.0,77,0.00,,,0.00,,2013-01-11 15:23:00,
2013-01-11 10:33:00,38.0,31.0,30.47,WNW,282,0.0,3.0,75,0.00,,,0.00,,2013-01-11 15:33:00,
2013-01-11 10:43:00,38.0,31.0,30.47,WNW,282,0.0,3.0,75,0.00,,,0.00,,2013-01-11 15:43:00,
2013-01-11 10:53:00,38.0,31.0,30.47,WNW,282,0.0,2.0,75,0.00,,,0.00,,2013-01-11 15:53:00,
2013-01-11 11:03:00,39.0,32.0,30.45,WNW,282,0.0,1.0,75,0.00,,,0.00,,2013-01-11 16:03:00,
2013-01-11 11:12:00,39.0,32.0,30.44,WNW,282,0.0,2.0,75,0.00,,,0.00,,2013-01-11 16:12:00,
2013-01-11 11:23:00,39.0,32.0,30.44,WNW,282,0.0,2.0,75,0.00,,,0.00,,2013-01-11 16:23:00,
2013-01-11 11:33:00,39.0,32.0,30.42,WNW,285,0.0,1.0,75,0.00,,,0.00,,2013-01-11 16:33:00,
2013-01-11 11:43:00,39.0,32.0,30.42,WNW,285,0.0,1.0,75,0.00,,,0.00,,2013-01-11 16:43:00,
2013-01-11 11:52:00,40.0,33.0,30.41,WNW,284,0.0,1.0,75,0.00,,,0.00,,2013-01-11 16:52:00,
2013-01-11 12:03:00,40.0,33.0,30.41,WNW,284,0.0,1.0,75,0.00,,,0.00,,2013-01-11 17:03:00,
2013-01-11 12:12:00,40.0,33.0,30.41,WNW,285,0.0,3.0,75,0.00,,,0.00,,2013-01-11 17:12:00,
2013-01-11 12:22:00,40.0,33.0,30.41,WNW,285,0.0,3.0,75,0.00,,,0.00,,2013-01-11 17:22:00,
2013-01-11 12:33:00,40.0,32.0,30.40,WNW,285,1.0,4.0,74,0.00,,,0.00,,2013-01-11 17:33:00,
2013-01-11 12:43:00,40.0,32.0,30.40,WNW,285,1.0,4.0,74,0.00,,,0.00,,2013-01-11 17:43:00,
2013-01-11 12:53:00,40.0,33.0,30.39,WNW,283,0.0,5.0,75,0.00,,,0.00,,2013-01-11 17:53:00,
2013-01-11 13:04:00,40.0,33.0,30.39,WNW,284,0.0,2.0,75,0.00,,,0.00,,2013-01-11 18:04:00,
2013-01-11 13:13:00,40.0,33.0,30.39,WNW,284,0.0,2.0,75,0.00,,,0.00,,2013-01-11 18:13:00,
2013-01-11 13:23:00,40.0,33.0,30.40,WNW,284,2.0,5.0,75,0.00,,,0.00,,2013-01-11 18:23:00,
2013-01-11 13:33:00,40.0,33.0,30.38,WNW,285,0.0,3.0,76,0.00,,,0.00,,2013-01-11 18:33:00,
2013-01-11 13:43:00,40.0,33.0,30.38,WNW,285,0.0,3.0,76,0.00,,,0.00,,2013-01-11 18:43:00,
2013-01-11 13:53:00,40.0,33.0,30.37,WNW,285,0.0,1.0,77,0.00,,,0.00,,2013-01-11 18:53:00,
2013-01-11 14:03:00,40.0,33.0,30.37,WNW,285,0.0,2.0,76,0.00,,,0.00,,2013-01-11 19:03:00,
2013-01-11 14:13:00,40.0,33.0,30.37,WNW,285,0.0,2.0,76,0.00,,,0.00,,2013-01-11 19:13:00,
2013-01-11 14:22:00,40.0,33.0,30.37,WNW,284,0.0,3.0,76,0.00,,,0.00,,2013-01-11 19:22:00,
2013-01-11 14:33:00,40.0,33.0,30.36,WNW,285,0.0,2.0,76,0.00,,,0.00,,2013-01-11 19:33:00,
2013-01-11 14:43:00,40.0,33.0,30.36,WNW,285,0.0,2.0,76,0.00,,,0.00,,2013-01-11 19:43:00,
2013-01-11 14:53:00,40.0,33.0,30.36,WNW,285,0.0,1.0,77,0.00,,,0.00,,2013-01-11 19:53:00,
2013-01-11 15:03:00,40.0,33.0,30.36,WNW,285,0.0,2.0,77,0.00,,,0.00,,2013-01-11 20:03:00,
2013-01-11 15:13:00,40.0,33.0,30.36,WNW,285,0.0,2.0,77,0.00,,,0.00,,2013-01-11 20:13:00,
2013-01-11 15:22:00,39.0,32.0,30.36,WNW,284,0.0,2.0,77,0.00,,,0.00,,2013-01-11 20:22:00,
2013-01-11 15:33:00,39.0,33.0,30.36,WNW,285,0.0,2.0,78,0.00,,,0.00,,2013-01-11 20:33:00,
2013-01-11 15:43:00,39.0,33.0,30.36,WNW,285,0.0,2.0,78,0.00,,,0.00,,2013-01-11 20:43:00,
2013-01-11 15:52:00,39.0,33.0,30.35,WNW,285,0.0,2.0,79,0.00,,,0.00,,2013-01-11 20:52:00,
2013-01-11 16:03:00,39.0,33.0,30.34,WNW,285,0.0,0.0,79,0.00,,,0.00,,2013-01-11 21:03:00,
2013-01-11 16:13:00,39.0,33.0,30.34,WNW,285,0.0,0.0,79,0.00,,,0.00,,2013-01-11 21:13:00,
2013-01-11 16:23:00,39.0,33.0,30.33,WNW,285,0.0,1.0,79,0.00,,,0.00,,2013-01-11 21:23:00,
2013-01-11 16:33:00,39.0,33.0,30.32,WNW,285,0.0,0.0,79,0.00,,,0.00,,2013-01-11 21:33:00,
2013-01-11 16:43:00,39.0,33.0,30.32,WNW,285,0.0,0.0,79,0.00,,,0.00,,2013-01-11 21:43:00,
2013-01-11 16:52:00,38.0,32.0,30.32,WNW,283,0.0,1.0,80,0.00,,,0.00,,2013-01-11 21:52:00,
2013-01-11 17:03:00,38.0,32.0,30.32,WNW,283,0.0,3.0,80,0.00,,,0.00,,2013-01-11 22:03:00,
2013-01-11 17:12:00,38.0,32.0,30.32,WNW,283,0.0,3.0,80,0.00,,,0.00,,2013-01-11 22:12:00,
2013-01-11 17:23:00,38.0,32.0,30.32,WNW,283,0.0,0.0,80,0.00,,,0.00,,2013-01-11 22:23:00,
2013-01-11 17:33:00,38.0,33.0,30.31,WNW,283,0.0,0.0,81,0.00,,,0.00,,2013-01-11 22:33:00,
2013-01-11 17:42:00,38.0,33.0,30.31,WNW,283,0.0,0.0,81,0.00,,,0.00,,2013-01-11 22:42:00,
2013-01-11 17:52:00,38.0,33.0,30.30,WNW,284,0.0,2.0,81,0.00,,,0.00,,2013-01-11 22:52:00,
2013-01-11 18:02:00,37.0,32.0,30.30,WNW,283,0.0,0.0,82,0.00,,,0.00,,2013-01-11 23:02:00,
2013-01-11 18:13:00,37.0,32.0,30.30,WNW,283,0.0,0.0,82,0.00,,,0.00,,2013-01-11 23:13:00,
2013-01-11 18:23:00,37.0,32.0,30.30,WNW,283,0.0,0.0,82,0.00,,,0.00,,2013-01-11 23:23:00,
2013-01-11 18:33:00,37.0,33.0,30.30,WNW,283,0.0,1.0,84,0.00,,,0.00,,2013-01-11 23:33:00,
2013-01-11 18:43:00,37.0,33.0,30.30,WNW,283,0.0,1.0,84,0.00,,,0.00,,2013-01-11 23:43:00,
2013-01-11 18:53:00,37.0,33.0,30.29,WNW,283,0.0,0.0,84,0.00,,,0.00,,2013-01-11 23:53:00,
2013-01-11 19:03:00,37.0,33.0,30.29,WNW,283,0.0,0.0,85,0.00,,,0.00,,2013-01-12 00:03:00,
2013-01-11 19:12:00,37.0,33.0,30.29,West,270,0.0,2.0,86,0.00,,,0.00,,2013-01-12 00:12:00,
2013-01-11 19:23:00,37.0,33.0,30.29,West,270,0.0,2.0,86,0.00,,,0.00,,2013-01-12 00:23:00,
2013-01-11 19:33:00,37.0,33.0,30.27,SSE,148,0.0,4.0,86,0.00,,,0.00,,2013-01-12 00:33:00,
2013-01-11 19:43:00,37.0,33.0,30.27,SSE,148,0.0,4.0,86,0.00,,,0.00,,2013-01-12 00:43:00,
2013-01-11 19:52:00,37.0,33.0,30.27,SE,146,2.0,5.0,85,0.00,,,0.00,,2013-01-12 00:52:00,
2013-01-11 20:03:00,37.0,33.0,30.27,SE,145,1.0,5.0,84,0.00,,,0.00,,2013-01-12 01:03:00,
2013-01-11 20:12:00,37.0,33.0,30.27,SE,145,1.0,5.0,84,0.00,,,0.00,,2013-01-12 01:12:00,
2013-01-11 20:22:00,37.0,33.0,30.27,SSE,147,0.0,5.0,85,0.00,,,0.00,,2013-01-12 01:22:00,
2013-01-11 20:33:00,37.0,34.0,30.26,SSE,147,0.0,3.0,87,0.00,,,0.00,,2013-01-12 01:33:00,
2013-01-11 20:43:00,37.0,34.0,30.26,SSE,147,0.0,3.0,87,0.00,,,0.00,,2013-01-12 01:43:00,
2013-01-11 20:52:00,37.0,34.0,30.26,SE,134,1.0,5.0,87,0.00,,,0.00,,2013-01-12 01:52:00,
2013-01-11 21:02:00,37.0,34.0,30.26,SE,146,1.0,4.0,88,0.01,,,0.01,,2013-01-12 02:02:00,
2013-01-11 21:12:00,37.0,34.0,30.26,SE,146,1.0,4.0,88,0.01,,,0.01,,2013-01-12 02:12:00,
2013-01-11 21:22:00,37.0,34.0,30.25,SE,137,0.0,4.0,89,0.03,,,0.03,,2013-01-12 02:22:00,
2013-01-11 21:33:00,37.0,34.0,30.25,SE,146,0.0,3.0,90,0.05,,,0.05,,2013-01-12 02:33:00,
2013-01-11 21:43:00,37.0,34.0,30.25,SE,146,0.0,3.0,90,0.05,,,0.05,,2013-01-12 02:43:00,
2013-01-11 21:53:00,37.0,35.0,30.24,SE,141,1.0,5.0,91,0.05,,,0.05,,2013-01-12 02:53:00,
2013-01-11 22:03:00,36.0,34.0,30.24,SE,140,0.0,5.0,91,0.04,,,0.06,,2013-01-12 03:03:00,
2013-01-11 22:12:00,36.0,34.0,30.24,SE,140,0.0,5.0,91,0.04,,,0.06,,2013-01-12 03:12:00,
2013-01-11 22:22:00,36.0,34.0,30.24,SSE,147,1.0,6.0,92,0.03,,,0.06,,2013-01-12 03:22:00,
2013-01-11 22:33:00,36.0,34.0,30.24,SE,142,0.0,5.0,92,0.01,,,0.06,,2013-01-12 03:33:00,
2013-01-11 22:43:00,36.0,34.0,30.24,SE,142,0.0,5.0,92,0.01,,,0.06,,2013-01-12 03:43:00,
2013-01-11 22:52:00,36.0,34.0,30.24,SE,139,1.0,5.0,92,0.02,,,0.07,,2013-01-12 03:52:00,
2013-01-11 23:02:00,36.0,34.0,30.22,SE,146,1.0,6.0,93,0.01,,,0.07,,2013-01-12 04:02:00,
2013-01-11 23:12:00,36.0,34.0,30.22,SE,146,1.0,6.0,93,0.01,,,0.07,,2013-01-12 04:12:00,
2013-01-11 23:22:00,36.0,34.0,30.22,SSE,162,1.0,5.0,93,0.01,,,0.07,,2013-01-12 04:22:00,
2013-01-11 23:32:00,37.0,35.0,30.22,South,173,0.0,4.0,93,0.01,,,0.07,,2013-01-12 04:32:00,
2013-01-11 23:42:00,37.0,35.0,30.22,South,173,0.0,4.0,93,0.01,,,0.07,,2013-01-12 04:42:00,
2013-01-11 23:52:00,37.0,35.0,30.22,SE,146,0.0,4.0,93,0.00,,,0.07,,2013-01-12 04:52:00,